Showing default

TIROS 3, 162

Orbit data source: Space-Track

TIROS 3, 162 is a payload satellite owned by GSFC (US) in LEO that was launched on Wed, 12 Jul 1961 UTC via a THOR DELTA launch vehicle from the Air Force Eastern Test Range (AFETR). Payload-class satellites include a variety of spacecraft equipped with specific instruments for various scientific and technological missions. These include communications satellites like Starlink; space stations such as the ISS; scientific satellites like the Hubble; Earth observation satellites from companies like Planet Labs, Umbra, and HawkEye 360; GPS; miniature CubeSats for education and research; and military/defense satellites.

Loading next visibility...
Identifier
162, 1961-017A
Orbit
LEO
Country
Flag of USUS
Related business
Manufacturer
RCA/East Windsor
Mission
Non-operational spacecraft
Bus & Motor
TIROS, Unknown motor
Mass
129 kg wet, 129 kg dry
Launch date (UTC)
1961-07-12 (65 years ago)
Launch vehicle
THOR DELTA
Launch site
Air Force Eastern Test Range (AFETR)
Object type
Payload
Rocket body
Debris
Shape & HBR
Unknown
Radar Cross Section
Medium (>0.1 m² and <1 m²)

Expand to show TLE details & history
Last TLE update: 1 day ago

TLE from 1 day ago
0 TIROS 3
1 00162U 61017A   26037.51843953  .00000149  00000-0  87686-4 0  9993
2 00162  47.8976 243.2770 0043540 142.1914 218.2051 14.45333194372878
Epoch: 2026-02-06T12:26Z
TLE epoch observation values (Epoch: 2026-02-06T12:26:33.175Z)
Latitude
Longitude
-80.01639°
Altitude
765.649 km
Speed
7.46 km/s
True Right ascension
16h 13m 06s
True Declination
0° 00' 00"
Sunlit
Object was in daylight at epoch
Visualization orbit readout
Latitude
Unknown
Longitude
Unknown
Altitude
Unknown
Speed
Unknown
Apparent Right ascension
Unknown
Apparent Declination
Unknown
Sunlit
N/A
Visualization observer readout
Local Sidereal Time
18:11:34
Azimuth
Unknown
Elevation
Unknown
Doppler factor
Unknown
Orbital elements
Apogee altitude
773.016 km
Perigee altitude
711.013 km
Semi-major axis
7,120.151 km
Eccentricity
0.00435
Inclination
47.8976°
RAAN
243.277°
Arg. of periapsis
142.1914°
True anomaly
217.89784°
Mean anomaly
218.2051°
Eccentric anomaly
218.05134°
Mean motion
3.61251 °/min
Orbital period
99.65 mins
BSTAR
0.000087686
Loading maneuver chart data...
Computing Atmospheric mass density...
Loading historical data...
Loading historical data...
Loading historical data...
Loading historical data...
Loading historical data...
Loading historical data...
Loading historical data...
Other satellites on launch #17 in the year 1961 (1961-07-12 UTC)

Documentation

Showing up to 5 results
|